sat.trackr.live / text

‹ back to catalog

STARLINK-32755

NORAD 62842 · 2025-019P

PAYLOAD ACTIVE UNKNOWN

§ Identity

Operator
Country
US
Launch date
2025-01-27
Launch site
AFETR
Launch vehicle
Mass (kg)
RCS (m²)

Purposes: comms

External: N2YO · Heavens-Above · Gunter

§ Orbital elements

Epoch: 2026-05-24T22:31:50.750976Z

Period
94.27 min
Inclination
43.0062°
Eccentricity
0.0001708
Mean motion
15.27591890 rev/d
Perigee alt
481.8 km
Apogee alt
484.2 km
Semi-major
6,861.2 km
B*
5.4145e-4
RAAN
11.3223°
Arg perigee
292.9858°
Mean anomaly
67.0813°
Rev number
7,399

§ Raw data

STARLINK-327551 62842U 25019P   26144.93878184  .00014672  00000+0  54145-3 0  99952 62842  43.0062  11.3223 0001708 292.9858  67.0813 15.27591890 73990

JSON: /api/v1/satellites/62842 · /tle

For live sub-satellite position, see the globe view (requires WebGL).

§ Visibility from observer

Set your observer location to see the next 7 days of passes ≥ 10°. The values pass through the URL so the page stays shareable.

No JS? Fill the form by hand. The geolocation button needs JavaScript.